sat.trackr.live / text

‹ back to catalog

STARLINK-36077

NORAD 66903 · 2025-283AB

PAYLOAD ACTIVE UNKNOWN

§ Identity

Operator
Country
US
Launch date
2025-12-04
Launch site
AFWTR
Launch vehicle
Mass (kg)
RCS (m²)

Purposes: comms

External: N2YO · Heavens-Above · Gunter

§ Orbital elements

Epoch: 2026-09-20T12:32:52.216512Z

Period
93.85 min
Inclination
53.1586°
Eccentricity
0.0001239
Mean motion
15.34393300 rev/d
Perigee alt
461.9 km
Apogee alt
463.6 km
Semi-major
6,840.9 km
B*
4.6486e-4
RAAN
195.6637°
Arg perigee
91.9497°
Mean anomaly
268.1648°
Rev number
4,572

§ Raw data

STARLINK-360771 66903U 25283AB  26263.52282658  .00015359  00000+0  46486-3 0  99942 66903  53.1586 195.6637 0001239  91.9497 268.1648 15.34393300 45729

JSON: /api/v1/satellites/66903 · /tle

For live sub-satellite position, see the globe view (requires WebGL).

§ Visibility from observer

Set your observer location to see the next 7 days of passes ≥ 10°. The values pass through the URL so the page stays shareable.

No JS? Fill the form by hand. The geolocation button needs JavaScript.